SVR191 URMM-LMML

Flight info

Callsign SVR191
Flight time 3h 30m
Altitude 34000
Route ABELA B967 ERSAR G487 ODIRA UW96 SIN UW90 INB UT310 GUMRU UW702 EKI UG12 GELBU UM603 BARPE UG12 GOLDO UM603 TSL UM600 DINOB DCT LORED P624 GZO
Aircraft A321/M-SDE3FGHIRWY/LB1

Departure

Time 2026-04-26 09:40
Airport Mineralnye Vody Airport (URMM)

Arrival

Time 2026-04-26 13:10
Airport Malta International Airport (LMML)
Time Latitude Longitude Altitude Speed Heading
2026-04-26 09:24 44.21777 43.08942 1078 ft 0 kts 212°
2026-04-26 09:27 44.21779 43.08944 1051 ft 2 kts 212°
2026-04-26 09:27 44.21793 43.08956 1051 ft 4 kts 212°
2026-04-26 09:27 44.21816 43.08976 1051 ft 4 kts 212°
2026-04-26 09:27 44.21837 43.08997 1051 ft 4 kts 240°
2026-04-26 09:28 44.21841 43.09029 1051 ft 4 kts 290°
2026-04-26 09:28 44.21834 43.09049 1051 ft 1 kts 303°
2026-04-26 09:28 44.21833 43.09051 1051 ft 0 kts 303°
2026-04-26 09:30 44.21836 43.09046 1051 ft 2 kts 303°
2026-04-26 09:30 44.21853 43.09008 1051 ft 7 kts 303°
2026-04-26 09:30 44.21891 43.08926 1051 ft 13 kts 302°
2026-04-26 09:31 44.21944 43.08807 1051 ft 15 kts 302°
2026-04-26 09:31 44.22000 43.08683 1051 ft 15 kts 300°
2026-04-26 09:31 44.22031 43.08563 1051 ft 13 kts 302°
2026-04-26 09:31 44.22085 43.08442 1051 ft 16 kts 302°
2026-04-26 09:32 44.22146 43.08306 1051 ft 17 kts 302°
2026-04-26 09:32 44.22208 43.08168 1051 ft 17 kts 302°
2026-04-26 09:32 44.22271 43.08028 1051 ft 17 kts 302°
2026-04-26 09:32 44.22335 43.07887 1051 ft 17 kts 302°
2026-04-26 09:33 44.22400 43.07741 1051 ft 18 kts 302°
2026-04-26 09:33 44.22467 43.07592 1051 ft 18 kts 302°
2026-04-26 09:33 44.22537 43.07439 1051 ft 19 kts 302°
2026-04-26 09:33 44.22607 43.07285 1050 ft 19 kts 302°
2026-04-26 09:34 44.22673 43.07159 1050 ft 13 kts 326°
2026-04-26 09:34 44.22768 43.07124 1051 ft 15 kts 347°
2026-04-26 09:34 44.22879 43.07088 1051 ft 17 kts 347°
2026-04-26 09:34 44.22991 43.07058 1051 ft 14 kts
2026-04-26 09:35 44.23025 43.07142 1051 ft 10 kts 92°
2026-04-26 09:35 44.23022 43.07212 1051 ft 7 kts 93°
2026-04-26 09:35 44.23020 43.07278 1051 ft 7 kts 92°
2026-04-26 09:35 44.23017 43.07369 1052 ft 11 kts 91°
2026-04-26 09:36 44.23031 43.07466 1052 ft 10 kts 38°
2026-04-26 09:36 44.23084 43.07412 1050 ft 13 kts 301°
2026-04-26 09:36 44.23143 43.07282 1048 ft 18 kts 302°
2026-04-26 09:36 44.23215 43.07123 1046 ft 21 kts 302°
2026-04-26 09:37 44.23294 43.06950 1046 ft 21 kts 302°
2026-04-26 09:37 44.23370 43.06783 1046 ft 20 kts 302°
2026-04-26 09:37 44.23443 43.06621 1051 ft 19 kts 302°
2026-04-26 09:37 44.23513 43.06468 1050 ft 19 kts 302°
2026-04-26 09:38 44.23570 43.06340 1051 ft 11 kts 299°
2026-04-26 09:38 44.23580 43.06257 1050 ft 6 kts 280°
2026-04-26 09:38 44.23604 43.06263 1050 ft 3 kts 67°
2026-04-26 09:38 44.23596 43.06286 1051 ft 2 kts 122°
2026-04-26 09:39 44.23583 43.06315 1051 ft 10 kts 122°
2026-04-26 09:39 44.23400 43.06717 1048 ft 88 kts 122°
2026-04-26 09:39 44.22954 43.07705 1051 ft 149 kts 122°
2026-04-26 09:39 44.22316 43.09119 1213 ft 186 kts 122°
2026-04-26 09:40 44.21620 43.10646 2044 ft 186 kts 121°
2026-04-26 09:40 44.20930 43.12165 2693 ft 187 kts 122°
2026-04-26 09:40 44.20194 43.13780 2845 ft 208 kts 122°
2026-04-26 09:40 44.19378 43.15574 2949 ft 231 kts 123°
2026-04-26 09:41 44.18494 43.17519 3415 ft 240 kts 123°
2026-04-26 09:41 44.17591 43.19507 4106 ft 245 kts 123°
2026-04-26 09:41 44.16680 43.21514 4875 ft 247 kts 123°
2026-04-26 09:41 44.15791 43.23599 5398 ft 256 kts 113°
2026-04-26 09:42 44.15615 43.26082 5887 ft 268 kts 78°
2026-04-26 09:42 44.16487 43.28384 6411 ft 276 kts 45°
2026-04-26 09:42 44.18156 43.29719 6908 ft 284 kts 11°
2026-04-26 09:42 44.20103 43.29577 7449 ft 283 kts 335°
2026-04-26 09:43 44.21704 43.28114 8009 ft 280 kts 315°
2026-04-26 09:43 44.23138 43.26277 8653 ft 281 kts 312°
2026-04-26 09:43 44.24547 43.24382 9299 ft 282 kts 311°
2026-04-26 09:43 44.25954 43.22474 9992 ft 283 kts 310°
2026-04-26 09:44 44.27389 43.20528 10329 ft 296 kts 309°
2026-04-26 09:44 44.28670 43.18186 10459 ft 309 kts 295°
2026-04-26 09:44 44.29523 43.15375 10589 ft 322 kts 282°
2026-04-26 09:44 44.29847 43.12223 10708 ft 336 kts 268°
2026-04-26 09:45 44.29540 43.08962 11005 ft 343 kts 254°
2026-04-26 09:45 44.28870 43.05740 11552 ft 346 kts 253°
2026-04-26 09:45 44.28190 43.02508 12115 ft 349 kts 253°
2026-04-26 09:45 44.27499 42.99250 12680 ft 351 kts 253°
2026-04-26 09:46 44.26804 42.95966 13233 ft 354 kts 253°
2026-04-26 09:46 44.26103 42.92657 13780 ft 357 kts 253°
2026-04-26 09:46 44.25396 42.89321 14284 ft 360 kts 253°
2026-04-26 09:46 44.24682 42.85955 14799 ft 363 kts 253°
2026-04-26 09:47 44.23965 42.82572 15320 ft 365 kts 253°
2026-04-26 09:47 44.23243 42.79171 15832 ft 367 kts 253°
2026-04-26 09:47 44.22512 42.75745 16346 ft 370 kts 253°
2026-04-26 09:47 44.21772 42.72297 16852 ft 372 kts 253°
2026-04-26 09:48 44.21024 42.68835 17345 ft 375 kts 253°
2026-04-26 09:48 44.20270 42.65338 17850 ft 378 kts 253°
2026-04-26 09:48 44.19516 42.61820 18336 ft 380 kts 254°
2026-04-26 09:48 44.19015 42.58203 18733 ft 382 kts 264°
2026-04-26 09:49 44.18798 42.54499 19134 ft 385 kts 264°
2026-04-26 09:49 44.18579 42.50773 19543 ft 387 kts 264°
2026-04-26 09:49 44.18355 42.47076 19938 ft 389 kts 264°
2026-04-26 09:49 44.18122 42.43259 20330 ft 391 kts 264°
2026-04-26 09:50 44.17886 42.39469 20714 ft 393 kts 264°
2026-04-26 09:50 44.17651 42.35718 21063 ft 396 kts 264°
2026-04-26 09:50 44.17409 42.31886 21484 ft 397 kts 264°
2026-04-26 09:50 44.17163 42.27995 21890 ft 399 kts 264°
2026-04-26 09:51 44.16922 42.24191 22249 ft 401 kts 264°
2026-04-26 09:51 44.16675 42.20316 22613 ft 403 kts 264°
2026-04-26 09:51 44.16424 42.16418 22972 ft 405 kts 264°
2026-04-26 09:51 44.16170 42.12501 23329 ft 407 kts 264°
2026-04-26 09:52 44.15910 42.08517 23660 ft 409 kts 264°
2026-04-26 09:52 44.15388 42.00585 24254 ft 413 kts 264°
2026-04-26 09:52 44.15129 41.96649 24550 ft 415 kts 264°
2026-04-26 09:53 44.14866 41.92642 24829 ft 416 kts 264°
2026-04-26 09:53 44.14600 41.88616 25101 ft 419 kts 264°
2026-04-26 09:53 44.14329 41.84576 25369 ft 421 kts 264°
2026-04-26 09:53 44.14056 41.80511 25628 ft 423 kts 264°
2026-04-26 09:54 44.13781 41.76426 25924 ft 424 kts 264°
2026-04-26 09:54 44.13504 41.72337 26216 ft 426 kts 264°
2026-04-26 09:54 44.13223 41.68224 26483 ft 427 kts 264°
2026-04-26 09:54 44.12939 41.64103 26769 ft 429 kts 264°
2026-04-26 09:55 44.12651 41.59962 27049 ft 431 kts 264°
2026-04-26 09:55 44.12357 41.55809 27377 ft 431 kts 264°
2026-04-26 09:55 44.12064 41.51664 27777 ft 430 kts 263°
2026-04-26 09:55 44.11525 41.47585 28159 ft 428 kts 255°
2026-04-26 09:56 44.10535 41.43684 28506 ft 428 kts 247°
2026-04-26 09:56 44.09363 41.39869 28854 ft 428 kts 248°
2026-04-26 09:56 44.08198 41.36062 29218 ft 428 kts 248°
2026-04-26 09:56 44.07040 41.32260 29601 ft 427 kts 248°
2026-04-26 09:57 44.05886 41.28465 29946 ft 426 kts 248°
2026-04-26 09:57 44.04736 41.24690 30254 ft 426 kts 248°
2026-04-26 09:57 44.03574 41.20890 30568 ft 425 kts 248°
2026-04-26 09:57 44.02417 41.17120 30861 ft 424 kts 248°
2026-04-26 09:58 44.01258 41.13355 31166 ft 423 kts 248°
2026-04-26 09:58 44.00102 41.09605 31454 ft 423 kts 248°
2026-04-26 09:58 43.98947 41.05854 31717 ft 423 kts 248°
2026-04-26 09:58 43.97791 41.02105 32009 ft 422 kts 248°
2026-04-26 09:59 43.96634 40.98357 32304 ft 421 kts 248°
2026-04-26 09:59 43.95855 40.95832 32486 ft 422 kts 247°
2026-04-26 09:59 43.94324 40.90885 32846 ft 421 kts 247°
2026-04-26 09:59 43.93167 40.87157 33154 ft 420 kts 247°
2026-04-26 10:00 43.92012 40.83443 33412 ft 419 kts 247°
2026-04-26 10:00 43.90858 40.79737 33700 ft 418 kts 247°
2026-04-26 10:00 43.89704 40.76042 33938 ft 418 kts 247°
2026-04-26 10:00 43.88542 40.72332 33991 ft 421 kts 247°
2026-04-26 10:01 43.86207 40.64890 33992 ft 421 kts 247°
2026-04-26 10:01 43.83837 40.57462 33991 ft 421 kts 247°
2026-04-26 10:02 43.81463 40.50044 33986 ft 422 kts 247°
2026-04-26 10:02 43.79081 40.42628 33980 ft 422 kts 246°
2026-04-26 10:03 43.76691 40.35183 33992 ft 423 kts 246°
2026-04-26 10:03 43.74295 40.27742 33993 ft 424 kts 246°
2026-04-26 10:04 43.71890 40.20303 33996 ft 424 kts 246°
2026-04-26 10:04 43.69472 40.12866 33986 ft 424 kts 246°
2026-04-26 10:05 43.67052 40.05433 33996 ft 424 kts 246°
2026-04-26 10:05 43.64635 39.97994 33999 ft 425 kts 246°
2026-04-26 10:06 43.62214 39.90557 34012 ft 425 kts 246°
2026-04-26 10:06 43.59788 39.83137 34009 ft 424 kts 246°
2026-04-26 10:07 43.57356 39.75728 34004 ft 424 kts 246°
2026-04-26 10:07 43.54917 39.68341 34002 ft 423 kts 246°
2026-04-26 10:08 43.52467 39.60968 34006 ft 423 kts 246°
2026-04-26 10:08 43.50006 39.53603 34007 ft 423 kts 246°
2026-04-26 10:09 43.47966 39.47484 34000 ft 423 kts 246°
2026-04-26 10:09 43.45505 39.40123 34000 ft 424 kts 246°
2026-04-26 10:10 43.43033 39.32763 34002 ft 424 kts 246°
2026-04-26 10:10 43.40559 39.25403 34009 ft 424 kts 246°
2026-04-26 10:11 43.38081 39.18050 34002 ft 424 kts 246°
2026-04-26 10:11 43.35596 39.10701 34007 ft 424 kts 246°
2026-04-26 10:12 43.33252 39.03261 34005 ft 424 kts 249°
2026-04-26 10:12 43.31184 38.95676 34007 ft 424 kts 250°
2026-04-26 10:13 43.29146 38.88076 34017 ft 424 kts 250°
2026-04-26 10:13 43.27040 38.80515 34004 ft 424 kts 249°
2026-04-26 10:14 43.24886 38.72979 34004 ft 424 kts 249°
2026-04-26 10:14 43.22707 38.65457 34004 ft 425 kts 249°
2026-04-26 10:15 43.20522 38.57941 33999 ft 424 kts 249°
2026-04-26 10:15 43.18341 38.50421 33992 ft 425 kts 249°
2026-04-26 10:16 43.16160 38.42896 33991 ft 425 kts 249°
2026-04-26 10:16 43.13972 38.35371 33991 ft 425 kts 249°
2026-04-26 10:17 43.11774 38.27852 33990 ft 426 kts 249°
2026-04-26 10:17 43.09554 38.20336 33992 ft 426 kts 249°
2026-04-26 10:18 43.07342 38.12822 33988 ft 426 kts 249°
2026-04-26 10:18 43.05162 38.05275 33987 ft 427 kts 249°
2026-04-26 10:19 43.02987 37.97730 33985 ft 427 kts 249°
2026-04-26 10:19 43.00783 37.90198 33986 ft 427 kts 249°
2026-04-26 10:20 42.98536 37.82685 33973 ft 427 kts 248°
2026-04-26 10:20 42.96286 37.75168 33972 ft 428 kts 248°
2026-04-26 10:21 42.94037 37.67639 33977 ft 429 kts 248°
2026-04-26 10:21 42.91788 37.60106 33979 ft 429 kts 248°
2026-04-26 10:22 42.89526 37.52574 33970 ft 429 kts 248°
2026-04-26 10:22 42.87252 37.45032 33970 ft 430 kts 248°
2026-04-26 10:23 42.84966 37.37490 33972 ft 431 kts 248°
2026-04-26 10:23 42.82666 37.29941 33979 ft 432 kts 248°
2026-04-26 10:24 42.80358 37.22392 33995 ft 432 kts 248°
2026-04-26 10:24 42.78052 37.14832 33983 ft 432 kts 248°
2026-04-26 10:25 42.75746 37.07273 33984 ft 433 kts 248°
2026-04-26 10:25 42.73423 36.99714 33988 ft 433 kts 248°
2026-04-26 10:26 42.71088 36.92162 33986 ft 433 kts 248°
2026-04-26 10:26 42.68569 36.84718 33987 ft 434 kts 244°
2026-04-26 10:27 42.65847 36.77392 33983 ft 435 kts 244°
2026-04-26 10:27 42.63106 36.70056 33986 ft 436 kts 244°
2026-04-26 10:28 42.60408 36.62688 33990 ft 436 kts 245°
2026-04-26 10:28 42.57727 36.55310 33993 ft 436 kts 244°
2026-04-26 10:29 42.55049 36.47987 33995 ft 436 kts 244°
2026-04-26 10:29 42.52345 36.40623 33997 ft 436 kts 244°
2026-04-26 10:30 42.49630 36.33265 34003 ft 436 kts 244°
2026-04-26 10:30 42.46911 36.25913 33991 ft 436 kts 244°
2026-04-26 10:31 42.44191 36.18566 33988 ft 437 kts 244°
2026-04-26 10:31 42.41464 36.11241 33986 ft 437 kts 244°
2026-04-26 10:32 42.38732 36.03899 33989 ft 437 kts 244°
2026-04-26 10:32 42.36001 35.96554 33978 ft 438 kts 244°
2026-04-26 10:33 42.33250 35.89209 33978 ft 438 kts 244°
2026-04-26 10:33 42.30490 35.81856 33980 ft 439 kts 244°
2026-04-26 10:34 42.27725 35.74504 33981 ft 439 kts 244°
2026-04-26 10:34 42.24953 35.67159 33972 ft 440 kts 244°
2026-04-26 10:35 42.22173 35.59800 33983 ft 440 kts 244°
2026-04-26 10:35 42.19387 35.52447 33982 ft 441 kts 244°
2026-04-26 10:36 42.16590 35.45088 33985 ft 441 kts 244°
2026-04-26 10:36 42.13783 35.37734 33979 ft 442 kts 244°
2026-04-26 10:37 42.10982 35.30370 33986 ft 442 kts 244°
2026-04-26 10:37 42.08182 35.22995 33986 ft 442 kts 244°
2026-04-26 10:38 42.05373 35.15626 33986 ft 443 kts 244°
2026-04-26 10:38 42.02843 35.08094 33973 ft 442 kts 255°
2026-04-26 10:39 42.01917 34.99964 33977 ft 441 kts 266°
2026-04-26 10:39 42.01508 34.91739 33984 ft 441 kts 266°
2026-04-26 10:40 42.01082 34.83503 33986 ft 442 kts 266°
2026-04-26 10:40 42.00684 34.75264 33994 ft 442 kts 267°
2026-04-26 10:41 42.00291 34.67012 33996 ft 442 kts 267°
2026-04-26 10:41 41.99889 34.58763 33990 ft 442 kts 267°
2026-04-26 10:42 41.99476 34.50506 33993 ft 443 kts 266°
2026-04-26 10:42 41.99052 34.42246 33997 ft 443 kts 266°
2026-04-26 10:43 41.98620 34.33986 33996 ft 443 kts 266°
2026-04-26 10:43 41.98183 34.25723 33996 ft 443 kts 266°
2026-04-26 10:44 41.97744 34.17471 33997 ft 443 kts 266°
2026-04-26 10:44 41.97304 34.09210 33996 ft 443 kts 267°
2026-04-26 10:45 41.96861 34.01016 34004 ft 443 kts 266°
2026-04-26 10:45 41.96398 33.92779 33999 ft 442 kts 267°
2026-04-26 10:46 41.95935 33.84534 34000 ft 442 kts 266°
2026-04-26 10:46 41.95471 33.76299 34001 ft 443 kts 266°
2026-04-26 10:47 41.94754 33.68089 33994 ft 443 kts 259°
2026-04-26 10:47 41.93485 33.59981 33993 ft 443 kts 260°
2026-04-26 10:48 41.92222 33.51880 33996 ft 443 kts 259°
2026-04-26 10:48 41.90951 33.43781 34001 ft 443 kts 258°
2026-04-26 10:49 41.89668 33.35667 34000 ft 443 kts 259°
2026-04-26 10:49 41.88374 33.27571 34000 ft 444 kts 259°
2026-04-26 10:50 41.87296 33.20845 34006 ft 444 kts 259°
2026-04-26 10:50 41.85778 33.11389 34008 ft 444 kts 259°
2026-04-26 10:51 41.83821 32.99253 34010 ft 444 kts 259°
2026-04-26 10:52 41.82511 32.91174 34006 ft 444 kts 260°
2026-04-26 10:52 41.81409 32.84460 34010 ft 444 kts 259°
2026-04-26 10:53 41.80078 32.76381 34017 ft 444 kts 259°
2026-04-26 10:53 41.78754 32.68295 34020 ft 444 kts 259°
2026-04-26 10:54 41.76756 32.56167 34030 ft 444 kts 259°
2026-04-26 10:54 41.75409 32.48087 34021 ft 445 kts 258°
2026-04-26 10:55 41.74051 32.40012 34011 ft 445 kts 258°
2026-04-26 10:55 41.72684 32.31934 34011 ft 445 kts 258°
2026-04-26 10:56 41.71287 32.23880 34014 ft 444 kts 258°
2026-04-26 10:56 41.69828 32.15851 34010 ft 444 kts 257°
2026-04-26 10:57 41.68361 32.07843 34007 ft 443 kts 258°
2026-04-26 10:57 41.66913 31.99824 34007 ft 443 kts 258°
2026-04-26 10:58 41.65454 31.91816 34004 ft 443 kts 258°
2026-04-26 10:58 41.63988 31.83803 34028 ft 444 kts 258°
2026-04-26 10:59 41.62514 31.75788 34027 ft 444 kts 257°
2026-04-26 10:59 41.61034 31.67830 34027 ft 444 kts 257°
2026-04-26 11:00 41.59537 31.59770 34026 ft 444 kts 257°
2026-04-26 11:00 41.58056 31.51811 34022 ft 445 kts 257°
2026-04-26 11:01 41.56556 31.43801 34025 ft 445 kts 257°
2026-04-26 11:01 41.55048 31.35782 34026 ft 445 kts 257°
2026-04-26 11:02 41.53568 31.27753 34028 ft 445 kts 258°
2026-04-26 11:02 41.52143 31.19727 34031 ft 445 kts 258°
2026-04-26 11:03 41.50715 31.11702 34024 ft 445 kts 258°
2026-04-26 11:03 41.49263 31.03671 34025 ft 445 kts 258°
2026-04-26 11:04 41.47798 30.95649 34027 ft 445 kts 258°
2026-04-26 11:04 41.46331 30.87621 34028 ft 446 kts 258°
2026-04-26 11:05 41.44858 30.79597 34031 ft 446 kts 258°
2026-04-26 11:05 41.43387 30.71575 34027 ft 445 kts 258°
2026-04-26 11:06 41.41906 30.63563 34025 ft 445 kts 258°
2026-04-26 11:06 41.40413 30.55559 34029 ft 445 kts 258°
2026-04-26 11:07 41.38907 30.47557 34024 ft 445 kts 258°
2026-04-26 11:07 41.37403 30.39556 34030 ft 445 kts 258°
2026-04-26 11:08 41.35899 30.31552 34023 ft 446 kts 258°
2026-04-26 11:08 41.34388 30.23551 34029 ft 446 kts 258°
2026-04-26 11:09 41.32872 30.15562 34030 ft 446 kts 258°
2026-04-26 11:09 41.31349 30.07570 34027 ft 446 kts 258°
2026-04-26 11:10 41.29823 29.99584 34029 ft 445 kts 257°
2026-04-26 11:10 41.28233 29.91619 34016 ft 446 kts 257°
2026-04-26 11:11 41.26576 29.83674 34017 ft 446 kts 256°
2026-04-26 11:11 41.24911 29.75728 34017 ft 446 kts 257°
2026-04-26 11:12 41.23258 29.67784 34010 ft 446 kts 257°
2026-04-26 11:12 41.21616 29.59848 34012 ft 445 kts 257°
2026-04-26 11:13 41.19965 29.51917 34014 ft 446 kts 257°
2026-04-26 11:13 41.18374 29.43962 34013 ft 446 kts 258°
2026-04-26 11:14 41.16876 29.35976 34006 ft 446 kts 258°
2026-04-26 11:14 41.15918 29.27883 34014 ft 443 kts 266°
2026-04-26 11:15 41.15280 29.19749 34009 ft 443 kts 266°
2026-04-26 11:15 41.14628 29.11632 34020 ft 442 kts 266°
2026-04-26 11:16 41.13975 29.03518 34021 ft 443 kts 266°
2026-04-26 11:16 41.13318 28.95391 34014 ft 443 kts 266°
2026-04-26 11:17 41.12655 28.87274 34016 ft 443 kts 266°
2026-04-26 11:17 41.11992 28.79151 34026 ft 442 kts 266°
2026-04-26 11:18 41.11331 28.71043 34022 ft 442 kts 266°
2026-04-26 11:18 41.10889 28.65622 34005 ft 442 kts 266°
2026-04-26 11:19 41.09986 28.54855 34013 ft 441 kts 266°
2026-04-26 11:19 41.09291 28.46773 34004 ft 441 kts 266°
2026-04-26 11:20 41.08716 28.40068 34010 ft 441 kts 266°
2026-04-26 11:20 41.07913 28.30636 34013 ft 440 kts 266°
2026-04-26 11:21 41.07216 28.22589 34027 ft 439 kts 265°
2026-04-26 11:21 41.06513 28.14548 34012 ft 439 kts 265°
2026-04-26 11:22 41.05802 28.06518 34031 ft 439 kts 265°
2026-04-26 11:22 41.05083 27.98494 34018 ft 439 kts 265°
2026-04-26 11:23 41.04364 27.90471 34024 ft 439 kts 265°
2026-04-26 11:23 41.03639 27.82446 34021 ft 439 kts 265°
2026-04-26 11:24 41.02911 27.74427 34022 ft 439 kts 265°
2026-04-26 11:24 41.02169 27.66400 34022 ft 439 kts 265°
2026-04-26 11:25 41.01424 27.58381 34023 ft 439 kts 265°
2026-04-26 11:25 41.00682 27.50366 34023 ft 439 kts 265°
2026-04-26 11:26 40.99930 27.42349 34013 ft 439 kts 265°
2026-04-26 11:26 40.99171 27.34324 34016 ft 439 kts 265°
2026-04-26 11:27 40.98407 27.26355 34020 ft 439 kts 265°
2026-04-26 11:27 40.97628 27.18281 34015 ft 440 kts 265°
2026-04-26 11:28 40.96851 27.10264 34019 ft 439 kts 265°
2026-04-26 11:28 40.96072 27.02255 34020 ft 438 kts 265°
2026-04-26 11:29 40.95293 26.94319 34019 ft 438 kts 265°
2026-04-26 11:29 40.94504 26.86328 34002 ft 438 kts 265°
2026-04-26 11:30 40.93836 26.79636 34014 ft 438 kts 265°
2026-04-26 11:30 40.92900 26.70355 34022 ft 438 kts 265°
2026-04-26 11:31 40.92090 26.62369 34026 ft 438 kts 265°
2026-04-26 11:31 40.91276 26.54390 34022 ft 438 kts 265°
2026-04-26 11:32 40.90464 26.46444 34031 ft 437 kts 265°
2026-04-26 11:32 40.89643 26.38474 34031 ft 436 kts 264°
2026-04-26 11:33 40.88813 26.30531 34016 ft 437 kts 265°
2026-04-26 11:33 40.87984 26.22580 34009 ft 437 kts 265°
2026-04-26 11:34 40.87210 26.14634 34018 ft 436 kts 265°
2026-04-26 11:34 40.86464 26.06684 34018 ft 436 kts 265°
2026-04-26 11:35 40.85696 25.98738 34020 ft 436 kts 265°
2026-04-26 11:35 40.85019 25.92096 34027 ft 436 kts 264°
2026-04-26 11:36 40.84069 25.84202 34028 ft 435 kts 263°
2026-04-26 11:36 40.83068 25.76375 34018 ft 435 kts 263°
2026-04-26 11:37 40.82078 25.68445 34020 ft 435 kts 263°
2026-04-26 11:37 40.81121 25.60602 34021 ft 435 kts 263°
2026-04-26 11:38 40.80157 25.52723 34036 ft 435 kts 263°
2026-04-26 11:38 40.79172 25.44860 34037 ft 434 kts 263°
2026-04-26 11:39 40.78188 25.37000 34037 ft 434 kts 263°
2026-04-26 11:39 40.77204 25.29154 34041 ft 433 kts 263°
2026-04-26 11:40 40.76212 25.21312 34034 ft 433 kts 263°
2026-04-26 11:40 40.75213 25.13480 34035 ft 433 kts 263°
2026-04-26 11:42 40.71163 24.82183 34034 ft 432 kts 263°
2026-04-26 11:43 40.70133 24.74383 34035 ft 432 kts 263°
2026-04-26 11:43 40.69105 24.66586 34027 ft 432 kts 263°
2026-04-26 11:44 40.68074 24.58781 34017 ft 432 kts 263°
2026-04-26 11:44 40.67033 24.50966 34020 ft 433 kts 263°
2026-04-26 11:45 40.65990 24.43158 34018 ft 433 kts 263°
2026-04-26 11:45 40.64934 24.35340 34023 ft 433 kts 263°
2026-04-26 11:46 40.63874 24.27545 34033 ft 433 kts 263°
2026-04-26 11:46 40.62818 24.19746 34036 ft 432 kts 263°
2026-04-26 11:47 40.61758 24.11962 34020 ft 432 kts 263°
2026-04-26 11:47 40.60692 24.04172 34017 ft 433 kts 263°
2026-04-26 11:48 40.59612 23.96376 34027 ft 433 kts 263°
2026-04-26 11:48 40.58530 23.88592 34032 ft 433 kts 263°
2026-04-26 11:49 40.57442 23.80806 34034 ft 432 kts 263°
2026-04-26 11:49 40.56354 23.73026 34035 ft 432 kts 263°
2026-04-26 11:50 40.55261 23.65263 34038 ft 431 kts 263°
2026-04-26 11:50 40.54164 23.57510 34036 ft 431 kts 263°
2026-04-26 11:51 40.53053 23.49764 34023 ft 431 kts 263°
2026-04-26 11:51 40.51934 23.42019 34028 ft 432 kts 262°
2026-04-26 11:52 40.51003 23.35582 34039 ft 431 kts 262°
2026-04-26 11:52 40.49699 23.26548 34044 ft 430 kts 262°
2026-04-26 11:53 40.48584 23.18835 34044 ft 430 kts 262°
2026-04-26 11:54 40.46892 23.07295 34042 ft 429 kts 262°
2026-04-26 11:54 40.45690 22.99663 34047 ft 430 kts 256°
2026-04-26 11:55 40.43417 22.92358 34042 ft 433 kts 250°
2026-04-26 11:55 40.40983 22.85120 34039 ft 433 kts 250°
2026-04-26 11:56 40.38554 22.77881 34031 ft 433 kts 250°
2026-04-26 11:56 40.36124 22.70660 34042 ft 433 kts 250°
2026-04-26 11:57 40.33684 22.63449 34043 ft 432 kts 249°
2026-04-26 11:57 40.31232 22.56254 34019 ft 433 kts 249°
2026-04-26 11:58 40.28759 22.49054 34025 ft 434 kts 249°
2026-04-26 11:58 40.26314 22.41830 34040 ft 434 kts 249°
2026-04-26 11:59 40.23890 22.34596 34044 ft 434 kts 249°
2026-04-26 11:59 40.21459 22.27366 34054 ft 434 kts 249°
2026-04-26 12:00 40.19013 22.20150 34050 ft 434 kts 249°
2026-04-26 12:00 40.16553 22.12929 34049 ft 435 kts 249°
2026-04-26 12:01 40.14092 22.05705 34066 ft 435 kts 248°
2026-04-26 12:01 40.11628 21.98497 34055 ft 434 kts 248°
2026-04-26 12:02 40.09120 21.91313 34056 ft 435 kts 248°
2026-04-26 12:02 40.06567 21.84162 34032 ft 435 kts 247°
2026-04-26 12:03 40.04006 21.76995 34031 ft 436 kts 247°
2026-04-26 12:03 40.01458 21.69827 34038 ft 436 kts 247°
2026-04-26 12:04 39.98913 21.62662 34042 ft 436 kts 247°
2026-04-26 12:04 39.96355 21.55506 34047 ft 435 kts 247°
2026-04-26 12:05 39.93801 21.48343 34050 ft 435 kts 247°
2026-04-26 12:05 39.91254 21.41178 34047 ft 436 kts 247°
2026-04-26 12:06 39.88699 21.34020 34052 ft 436 kts 247°
2026-04-26 12:06 39.86143 21.26849 34058 ft 436 kts 247°
2026-04-26 12:07 39.83601 21.19730 34062 ft 437 kts 247°
2026-04-26 12:07 39.81024 21.12573 34061 ft 437 kts 246°
2026-04-26 12:08 39.78448 21.05426 34064 ft 437 kts 246°
2026-04-26 12:08 39.75860 20.98274 34078 ft 437 kts 246°
2026-04-26 12:09 39.73273 20.91130 34069 ft 437 kts 246°
2026-04-26 12:09 39.70680 20.83986 34068 ft 437 kts 246°
2026-04-26 12:10 39.68133 20.76830 34075 ft 436 kts 248°
2026-04-26 12:10 39.65711 20.69600 34066 ft 436 kts 248°
2026-04-26 12:11 39.63310 20.62373 34056 ft 437 kts 248°
2026-04-26 12:11 39.60873 20.55157 34054 ft 437 kts 248°
2026-04-26 12:12 39.58408 20.47954 34059 ft 437 kts 247°
2026-04-26 12:12 39.55937 20.40765 34053 ft 437 kts 247°
2026-04-26 12:13 39.53471 20.33578 34051 ft 436 kts 247°
2026-04-26 12:13 39.51001 20.26394 34056 ft 437 kts 247°
2026-04-26 12:14 39.48523 20.19201 34044 ft 437 kts 247°
2026-04-26 12:14 39.46038 20.12026 34055 ft 437 kts 246°
2026-04-26 12:15 39.43019 20.05218 34057 ft 438 kts 232°
2026-04-26 12:15 39.39049 19.99232 34057 ft 439 kts 231°
2026-04-26 12:16 39.35088 19.93236 34069 ft 439 kts 231°
2026-04-26 12:16 39.31124 19.87234 34082 ft 439 kts 231°
2026-04-26 12:17 39.27149 19.81244 34091 ft 439 kts 230°
2026-04-26 12:17 39.23170 19.75269 34088 ft 439 kts 230°
2026-04-26 12:18 39.19194 19.69316 34101 ft 438 kts 230°
2026-04-26 12:18 39.15211 19.63363 34101 ft 438 kts 230°
2026-04-26 12:19 39.11908 19.58415 34095 ft 438 kts 230°
2026-04-26 12:19 39.07931 19.52468 34101 ft 438 kts 230°
2026-04-26 12:20 39.03942 19.46537 34114 ft 438 kts 230°
2026-04-26 12:20 38.99948 19.40613 34128 ft 438 kts 230°
2026-04-26 12:21 38.95968 19.34708 34125 ft 437 kts 230°
2026-04-26 12:21 38.91987 19.28811 34130 ft 437 kts 230°
2026-04-26 12:22 38.88005 19.22925 34131 ft 436 kts 230°
2026-04-26 12:22 38.84027 19.17049 34123 ft 436 kts 229°
2026-04-26 12:23 38.80044 19.11176 34134 ft 436 kts 229°
2026-04-26 12:23 38.76051 19.05318 34138 ft 436 kts 229°
2026-04-26 12:24 38.72065 18.99480 34133 ft 435 kts 229°
2026-04-26 12:24 38.68222 18.93505 34133 ft 435 kts 232°
2026-04-26 12:25 38.62632 18.84370 34130 ft 435 kts 232°
2026-04-26 12:25 38.58867 18.78315 34131 ft 435 kts 231°
2026-04-26 12:26 38.55073 18.72308 34143 ft 434 kts 231°
2026-04-26 12:26 38.51281 18.66319 34136 ft 433 kts 231°
2026-04-26 12:27 38.47502 18.60325 34132 ft 433 kts 231°
2026-04-26 12:27 38.43725 18.54336 34138 ft 433 kts 231°
2026-04-26 12:28 38.39940 18.48353 34138 ft 433 kts 231°
2026-04-26 12:28 38.36150 18.42380 34147 ft 433 kts 230°
2026-04-26 12:29 38.32359 18.36419 34141 ft 433 kts 230°
2026-04-26 12:30 38.26673 18.27495 34141 ft 432 kts 230°
2026-04-26 12:30 38.22881 18.21566 34140 ft 432 kts 230°
2026-04-26 12:31 38.17195 18.12677 34145 ft 432 kts 230°
2026-04-26 12:31 38.13398 18.06748 34137 ft 432 kts 230°
2026-04-26 12:32 38.09598 18.00831 34141 ft 433 kts 230°
2026-04-26 12:33 38.03882 17.91957 34144 ft 433 kts 230°
2026-04-26 12:33 38.00063 17.86048 34145 ft 433 kts 230°
2026-04-26 12:34 37.96242 17.80146 34135 ft 433 kts 230°
2026-04-26 12:34 37.92415 17.74249 34148 ft 433 kts 230°
2026-04-26 12:35 37.88590 17.68351 34151 ft 433 kts 230°
2026-04-26 12:35 37.84766 17.62463 34154 ft 433 kts 230°
2026-04-26 12:36 37.80964 17.56619 34154 ft 433 kts 230°
2026-04-26 12:36 37.77135 17.50745 34144 ft 433 kts 230°
2026-04-26 12:37 37.73272 17.44844 34152 ft 433 kts 230°
2026-04-26 12:37 37.69429 17.38978 34156 ft 433 kts 230°
2026-04-26 12:38 37.65582 17.33119 34151 ft 434 kts 230°
2026-04-26 12:38 37.61747 17.27306 34154 ft 434 kts 230°
2026-04-26 12:39 37.57887 17.21452 34146 ft 434 kts 230°
2026-04-26 12:39 37.54032 17.15593 34151 ft 435 kts 230°
2026-04-26 12:40 37.50169 17.09734 34150 ft 435 kts 230°
2026-04-26 12:40 37.46297 17.03880 34152 ft 435 kts 231°
2026-04-26 12:41 37.42421 16.98029 34151 ft 435 kts 231°
2026-04-26 12:41 37.38538 16.92185 34153 ft 436 kts 231°
2026-04-26 12:42 37.34641 16.86346 34149 ft 436 kts 231°
2026-04-26 12:42 37.30737 16.80506 34152 ft 436 kts 231°
2026-04-26 12:43 37.26834 16.74673 34153 ft 436 kts 231°
2026-04-26 12:43 37.22933 16.68835 34152 ft 436 kts 232°
2026-04-26 12:44 37.19032 16.63006 34162 ft 436 kts 231°
2026-04-26 12:44 37.15131 16.57185 34160 ft 436 kts 231°
2026-04-26 12:45 37.11220 16.51367 34157 ft 436 kts 231°
2026-04-26 12:45 37.07313 16.45563 34164 ft 436 kts 231°
2026-04-26 12:46 37.03396 16.39765 34153 ft 436 kts 232°
2026-04-26 12:46 36.99480 16.33969 34154 ft 436 kts 232°
2026-04-26 12:47 36.95401 16.28345 34027 ft 437 kts 228°
2026-04-26 12:47 36.93258 16.25655 33752 ft 437 kts 226°
2026-04-26 12:47 36.91086 16.23001 33476 ft 437 kts 226°
2026-04-26 12:47 36.88912 16.20346 33217 ft 437 kts 226°
2026-04-26 12:48 36.86748 16.17673 32963 ft 438 kts 227°
2026-04-26 12:48 36.84598 16.14979 32692 ft 438 kts 227°
2026-04-26 12:48 36.82457 16.12267 32420 ft 439 kts 227°
2026-04-26 12:48 36.80317 16.09545 32162 ft 440 kts 227°
2026-04-26 12:49 36.78174 16.06818 31909 ft 440 kts 227°
2026-04-26 12:49 36.76027 16.04094 31652 ft 441 kts 227°
2026-04-26 12:49 36.73870 16.01370 31407 ft 442 kts 227°
2026-04-26 12:49 36.71704 15.98647 31152 ft 442 kts 227°
2026-04-26 12:50 36.69535 15.95923 30903 ft 443 kts 227°
2026-04-26 12:50 36.67364 15.93200 30669 ft 443 kts 227°
2026-04-26 12:50 36.65191 15.90473 30152 ft 445 kts 227°
2026-04-26 12:50 36.62994 15.87716 29042 ft 451 kts 228°
2026-04-26 12:51 36.60785 15.84946 28152 ft 450 kts 227°
2026-04-26 12:51 36.58603 15.82215 27510 ft 438 kts 227°
2026-04-26 12:51 36.56485 15.79570 26954 ft 427 kts 228°
2026-04-26 12:51 36.54408 15.76977 26367 ft 419 kts 228°
2026-04-26 12:52 36.52366 15.74426 25801 ft 414 kts 228°
2026-04-26 12:52 36.50345 15.71899 25237 ft 411 kts 228°
2026-04-26 12:52 36.48334 15.69384 24680 ft 409 kts 228°
2026-04-26 12:52 36.46337 15.66884 24122 ft 407 kts 228°
2026-04-26 12:53 36.44342 15.64394 23545 ft 405 kts 227°
2026-04-26 12:53 36.42359 15.61925 22960 ft 402 kts 228°
2026-04-26 12:53 36.40392 15.59477 22417 ft 398 kts 228°
2026-04-26 12:53 36.38441 15.57051 21883 ft 396 kts 227°
2026-04-26 12:54 36.36503 15.54645 21359 ft 394 kts 227°
2026-04-26 12:54 36.34572 15.52248 20840 ft 392 kts 227°
2026-04-26 12:54 36.32648 15.49865 20344 ft 390 kts 227°
2026-04-26 12:54 36.30732 15.47492 19847 ft 388 kts 226°
2026-04-26 12:55 36.28830 15.45141 19364 ft 385 kts 226°
2026-04-26 12:55 36.26936 15.42805 18881 ft 383 kts 226°
2026-04-26 12:55 36.25055 15.40483 18428 ft 380 kts 226°
2026-04-26 12:55 36.23196 15.38183 17913 ft 376 kts 226°
2026-04-26 12:56 36.21355 15.35903 17456 ft 372 kts 226°
2026-04-26 12:56 36.19538 15.33657 17002 ft 367 kts 226°
2026-04-26 12:56 36.17740 15.31436 16527 ft 363 kts 226°
2026-04-26 12:56 36.15960 15.29239 16047 ft 360 kts 226°
2026-04-26 12:57 36.14194 15.27065 15582 ft 357 kts 226°
2026-04-26 12:57 36.12434 15.24904 15099 ft 355 kts 225°
2026-04-26 12:57 36.10687 15.22760 14613 ft 353 kts 225°
2026-04-26 12:58 36.07228 15.18507 13589 ft 349 kts 226°
2026-04-26 12:58 36.05510 15.16399 13088 ft 346 kts 225°
2026-04-26 12:58 36.03810 15.14314 12591 ft 343 kts 226°
2026-04-26 12:58 36.02123 15.12242 12097 ft 341 kts 226°
2026-04-26 12:59 36.00443 15.10180 11602 ft 339 kts 226°
2026-04-26 12:59 35.98788 15.08151 11115 ft 338 kts 226°
2026-04-26 12:59 35.97143 15.06141 10927 ft 326 kts 226°
2026-04-26 12:59 35.95578 15.04233 10791 ft 306 kts 226°
2026-04-26 13:00 35.94094 15.02424 10448 ft 296 kts 227°
2026-04-26 13:00 35.92647 15.00660 10149 ft 291 kts 227°
2026-04-26 13:00 35.91211 14.98907 10017 ft 290 kts 227°
2026-04-26 13:00 35.89778 14.97157 9882 ft 290 kts 227°
2026-04-26 13:01 35.88346 14.95408 9754 ft 290 kts 227°
2026-04-26 13:01 35.86915 14.93660 9622 ft 289 kts 227°
2026-04-26 13:01 35.85484 14.91913 9276 ft 292 kts 226°
2026-04-26 13:01 35.84046 14.90157 8926 ft 289 kts 226°
2026-04-26 13:02 35.82604 14.88400 8462 ft 291 kts 226°
2026-04-26 13:02 35.81636 14.87224 8269 ft 287 kts 226°
2026-04-26 13:02 35.80221 14.85507 7826 ft 285 kts 226°
2026-04-26 13:02 35.78835 14.83826 7377 ft 282 kts 226°
2026-04-26 13:03 35.77441 14.82135 6851 ft 280 kts 226°
2026-04-26 13:03 35.76041 14.80438 6309 ft 277 kts 226°
2026-04-26 13:03 35.74680 14.78786 5602 ft 273 kts 226°
2026-04-26 13:03 35.73365 14.77191 5245 ft 257 kts 225°
2026-04-26 13:04 35.72153 14.75722 5039 ft 237 kts 225°
2026-04-26 13:04 35.71027 14.74359 4919 ft 223 kts 225°
2026-04-26 13:04 35.69956 14.73063 4853 ft 206 kts 225°
2026-04-26 13:04 35.69001 14.71858 4710 ft 188 kts 233°
2026-04-26 13:05 35.68551 14.70443 4631 ft 172 kts 264°
2026-04-26 13:05 35.68743 14.68988 4473 ft 179 kts 293°
2026-04-26 13:05 35.69519 14.67794 4193 ft 181 kts 314°
2026-04-26 13:05 35.70414 14.66701 3891 ft 181 kts 313°
2026-04-26 13:06 35.71301 14.65607 3626 ft 181 kts 313°
2026-04-26 13:06 35.72189 14.64512 3381 ft 181 kts 313°
2026-04-26 13:06 35.73077 14.63419 3136 ft 180 kts 313°
2026-04-26 13:06 35.73957 14.62333 2894 ft 179 kts 313°
2026-04-26 13:07 35.74835 14.61249 2655 ft 178 kts 314°
2026-04-26 13:07 35.75707 14.60173 2436 ft 177 kts 314°
2026-04-26 13:07 35.76574 14.59102 2173 ft 176 kts 313°
2026-04-26 13:07 35.77428 14.58047 1942 ft 170 kts 314°
2026-04-26 13:08 35.78239 14.57046 1731 ft 161 kts 313°
2026-04-26 13:08 35.79023 14.56077 1507 ft 159 kts 314°
2026-04-26 13:08 35.79798 14.55119 1291 ft 157 kts 314°
2026-04-26 13:08 35.80567 14.54167 1082 ft 156 kts 313°
2026-04-26 13:09 35.81307 14.53251 886 ft 158 kts 313°
2026-04-26 13:09 35.82087 14.52287 669 ft 160 kts 314°
2026-04-26 13:09 35.82876 14.51308 466 ft 161 kts 313°
2026-04-26 13:09 35.83669 14.50327 272 ft 161 kts 312°
2026-04-26 13:10 35.84361 14.49458 258 ft 120 kts 315°
2026-04-26 13:10 35.84830 14.48877 258 ft 71 kts 314°
2026-04-26 13:10 35.85057 14.48598 267 ft 25 kts 315°
2026-04-26 13:10 35.85168 14.48463 272 ft 22 kts 315°
2026-04-26 13:11 35.85279 14.48327 272 ft 22 kts 315°
2026-04-26 13:11 35.85390 14.48190 272 ft 23 kts 315°
2026-04-26 13:11 35.85516 14.48077 272 ft 23 kts 334°
2026-04-26 13:11 35.85609 14.48037 272 ft 10 kts 343°
2026-04-26 13:12 35.85665 14.48008 272 ft 0 kts 319°
2026-04-26 13:13 35.85666 14.48008 272 ft 1 kts 319°
2026-04-26 13:13 35.85677 14.47983 272 ft 6 kts 286°
2026-04-26 13:13 35.85655 14.47936 272 ft 8 kts 221°
2026-04-26 13:13 35.85590 14.47950 272 ft 12 kts 139°
2026-04-26 13:14 35.85520 14.48032 272 ft 16 kts 135°
2026-04-26 13:14 35.85433 14.48139 272 ft 20 kts 135°
2026-04-26 13:14 35.85327 14.48271 272 ft 24 kts 135°
2026-04-26 13:14 35.85203 14.48424 272 ft 26 kts 135°
2026-04-26 13:15 35.85079 14.48590 268 ft 28 kts 124°
2026-04-26 13:15 35.85016 14.48786 261 ft 21 kts 104°
2026-04-26 13:15 35.84983 14.48944 259 ft 16 kts 105°
2026-04-26 13:15 35.84928 14.49066 258 ft 17 kts 130°
2026-04-26 13:16 35.84892 14.49120 259 ft 6 kts 112°
2026-04-26 13:16 35.84917 14.49170 258 ft 8 kts 44°
2026-04-26 13:16 35.84938 14.49232 258 ft 9 kts 102°
2026-04-26 13:16 35.84909 14.49300 259 ft 10 kts 132°
2026-04-26 13:17 35.84915 14.49337 259 ft 3 kts 360°
2026-04-26 13:17 35.84938 14.49337 259 ft 3 kts 359°
2026-04-26 13:18 35.84951 14.49337 259 ft 0 kts 359°